Precipitable_Water
1.43 1.44 1.42 1.39 1.40 1.38 1.34 1.30 1.29 1.25 1.22 1.21 1.23 1.23 1.24 1.22 1.20 1.19 1.18 1.14 1.22 1.27 1.30 1.29 1.31 1.37 1.36 1.26 1.22 1.25 1.26 1.21 1.12 1.07 1.08 1.08 1.13 1.08 0.87 0.71 0.78 0.85 0.85
1.47 1.41 1.43 1.39 1.37 1.37 1.34 1.31 1.29 1.28 1.26 1.25 1.26 1.27 1.27 1.26 1.25 1.24 1.26 1.26 1.23 1.24 1.35 1.34 1.33 1.31 1.34 1.33 1.29 1.25 1.24 1.18 1.12 1.13 1.12 1.11 1.18 1.20 1.17 1.00 0.82 0.72 0.70
1.37 1.42 1.45 1.41 1.38 1.37 1.34 1.32 1.32 1.30 1.28 1.26 1.26 1.26 1.26 1.28 1.34 1.39 1.38 1.35 1.31 1.28 1.29 1.34 1.32 1.32 1.32 1.30 1.30 1.32 1.29 1.24 1.20 1.12 1.06 1.12 1.16 1.23 1.26 1.19 1.05 0.97 0.94
1.31 1.39 1.44 1.42 1.38 1.37 1.36 1.36 1.36 1.35 1.30 1.28 1.29 1.28 1.27 1.25 1.23 1.22 1.19 1.18 1.17 1.17 1.20 1.21 1.23 1.24 1.26 1.32 1.33 1.35 1.40 1.40 1.37 1.31 1.24 1.09 1.19 1.16 1.20 1.17 1.14 1.12 1.12
1.36 1.41 1.40 1.43 1.47 1.42 1.41 1.40 1.35 1.34 1.31 1.22 1.13 1.07 1.03 0.99 0.99 1.00 0.99 0.94 0.91 0.92 0.94 0.99 1.04 1.13 1.22 1.29 1.32 1.34 1.34 1.32 1.34 1.37 1.36 1.35 1.37 1.37 1.34 1.24 1.20 1.14 1.20
1.40 1.42 1.41 1.49 1.51 1.48 1.42 1.41 1.34 1.25 1.09 0.95 0.90 0.81 0.74 0.72 0.70 0.66 0.64 0.66 0.68 0.69 0.71 0.73 0.76 0.79 0.88 0.99 1.10 1.18 1.27 1.28 1.26 1.29 1.29 1.27 1.31 1.35 1.37 1.36 1.29 1.22 1.19
1.37 1.42 1.42 1.49 1.50 1.46 1.36 1.25 1.16 1.02 0.87 0.77 0.68 0.62 0.56 0.51 0.47 0.47 0.47 0.50 0.52 0.54 0.55 0.56 0.57 0.59 0.62 0.66 0.71 0.81 0.94 1.11 1.19 1.19 1.21 1.20 1.18 1.16 1.24 1.32 1.32 1.32 1.28
1.34 1.39 1.42 1.45 1.39 1.31 1.21 1.07 0.89 0.75 0.68 0.60 0.51 0.46 0.42 0.41 0.46 0.50 0.51 0.54 0.53 0.52 0.51 0.51 0.52 0.53 0.53 0.54 0.55 0.57 0.58 0.62 0.75 0.95 1.04 1.10 1.12 1.15 1.17 1.22 1.28 1.33 1.28
1.35 1.34 1.36 1.33 1.28 1.20 1.01 0.82 0.70 0.61 0.51 0.47 0.45 0.44 0.43 0.47 0.50 0.53 0.54 0.53 0.53 0.51 0.51 0.52 0.53 0.54 0.54 0.56 0.55 0.54 0.52 0.50 0.50 0.53 0.64 0.81 0.93 1.09 1.13 1.18 1.40 1.46 1.48
1.37 1.25 1.25 1.17 1.05 0.91 0.82 0.68 0.56 0.49 0.50 0.49 0.47 0.45 0.48 0.51 0.52 0.55 0.53 0.52 0.54 0.53 0.54 0.56 0.56 0.55 0.56 0.56 0.57 0.57 0.57 0.57 0.54 0.54 0.53 0.56 0.80 0.96 1.08 1.29 1.42 1.49 1.59
1.22 1.12 1.06 1.00 0.92 0.83 0.73 0.60 0.55 0.52 0.51 0.50 0.49 0.48 0.49 0.50 0.52 0.52 0.51 0.53 0.53 0.53 0.56 0.58 0.58 0.59 0.58 0.58 0.54 0.53 0.53 0.54 0.54 0.55 0.56 0.59 0.69 0.92 1.19 1.15 1.28 1.42 1.46
1.18 1.05 0.97 0.93 0.84 0.74 0.63 0.55 0.55 0.52 0.51 0.51 0.50 0.47 0.47 0.49 0.50 0.48 0.49 0.50 0.49 0.51 0.51 0.53 0.55 0.55 0.55 0.55 0.55 0.56 0.56 0.56 0.54 0.54 0.55 0.60 0.64 0.84 1.06 1.08 1.04 1.13 1.18
1.23 1.09 1.01 0.94 0.84 0.71 0.55 0.54 0.54 0.52 0.51 0.53 0.51 0.48 0.45 0.46 0.46 0.48 0.47 0.47 0.48 0.49 0.49 0.50 0.51 0.53 0.54 0.55 0.55 0.56 0.57 0.58 0.59 0.58 0.57 0.64 0.74 0.82 0.84 0.82 0.83 0.88 0.91
1.21 1.11 1.04 0.92 0.78 0.63 0.54 0.53 0.52 0.51 0.53 0.50 0.49 0.45 0.45 0.44 0.46 0.44 0.43 0.45 0.47 0.48 0.44 0.47 0.50 0.54 0.56 0.58 0.59 0.59 0.60 0.61 0.63 0.64 0.64 0.67 0.72 0.75 0.77 0.77 0.79 0.83 0.87
1.17 1.09 1.00 0.87 0.73 0.58 0.53 0.52 0.52 0.52 0.52 0.49 0.45 0.45 0.45 0.45 0.43 0.43 0.44 0.43 0.45 0.45 0.43 0.46 0.51 0.52 0.53 0.57 0.60 0.61 0.63 0.65 0.66 0.68 0.69 0.72 0.76 0.78 0.79 0.80 0.80 0.83 0.86
1.13 1.04 0.97 0.84 0.71 0.58 0.53 0.51 0.52 0.53 0.52 0.48 0.44 0.44 0.46 0.45 0.44 0.43 0.41 0.41 0.43 0.43 0.43 0.48 0.48 0.47 0.50 0.57 0.59 0.63 0.65 0.67 0.68 0.71 0.74 0.75 0.81 0.82 0.84 0.85 0.85 0.85 0.83
1.09 1.02 0.94 0.83 0.70 0.57 0.54 0.53 0.54 0.53 0.49 0.45 0.42 0.45 0.46 0.47 0.44 0.43 0.42 0.41 0.43 0.44 0.46 0.46 0.43 0.41 0.45 0.55 0.58 0.62 0.64 0.65 0.68 0.71 0.76 0.80 0.83 0.86 0.86 0.83 0.86 0.86 0.84
1.04 0.95 0.91 0.81 0.69 0.59 0.56 0.55 0.55 0.52 0.46 0.43 0.43 0.46 0.48 0.46 0.46 0.44 0.44 0.43 0.44 0.44 0.45 0.44 0.39 0.35 0.39 0.50 0.53 0.55 0.57 0.66 0.70 0.73 0.77 0.80 0.83 0.84 0.85 0.87 0.84 0.83 0.81
0.97 0.90 0.83 0.77 0.67 0.58 0.57 0.56 0.55 0.50 0.44 0.43 0.44 0.46 0.47 0.47 0.47 0.46 0.47 0.47 0.45 0.42 0.40 0.40 0.39 0.36 0.33 0.41 0.51 0.52 0.57 0.64 0.69 0.76 0.76 0.76 0.77 0.77 0.81 0.85 0.82 0.78 0.77
0.92 0.88 0.79 0.71 0.64 0.59 0.58 0.56 0.53 0.49 0.45 0.44 0.44 0.46 0.47 0.47 0.48 0.47 0.50 0.48 0.46 0.41 0.40 0.40 0.39 0.40 0.35 0.38 0.45 0.49 0.52 0.64 0.73 0.77 0.76 0.76 0.77 0.79 0.83 0.85 0.79 0.76 0.76
0.86 0.78 0.67 0.60 0.59 0.58 0.54 0.51 0.47 0.43 0.44 0.47 0.47 0.47 0.48 0.47 0.49 0.51 0.51 0.47 0.46 0.43 0.41 0.42 0.41 0.38 0.35 0.38 0.36 0.45 0.57 0.63 0.65 0.69 0.72 0.70 0.69 0.75 0.77 0.77 0.74 0.74 0.74
0.60 0.58 0.55 0.54 0.55 0.56 0.55 0.52 0.50 0.47 0.48 0.49 0.49 0.47 0.47 0.50 0.52 0.55 0.48 0.47 0.48 0.45 0.44 0.43 0.42 0.39 0.38 0.40 0.34 0.37 0.35 0.50 0.60 0.64 0.67 0.66 0.63 0.70 0.66 0.65 0.66 0.68 0.71
0.45 0.45 0.46 0.50 0.55 0.55 0.55 0.54 0.53 0.50 0.48 0.46 0.47 0.46 0.48 0.53 0.57 0.51 0.51 0.50 0.49 0.51 0.46 0.45 0.45 0.43 0.36 0.40 0.41 0.37 0.31 0.31 0.41 0.56 0.60 0.62 0.61 0.61 0.64 0.63 0.61 0.64 0.68
0.43 0.44 0.44 0.48 0.53 0.54 0.55 0.52 0.47 0.44 0.43 0.47 0.46 0.48 0.55 0.59 0.52 0.53 0.54 0.53 0.52 0.54 0.51 0.49 0.51 0.48 0.46 0.39 0.41 0.46 0.47 0.46 0.35 0.31 0.48 0.54 0.59 0.57 0.57 0.59 0.60 0.63 0.66
0.44 0.45 0.46 0.48 0.51 0.54 0.53 0.51 0.49 0.48 0.50 0.48 0.52 0.55 0.53 0.48 0.51 0.54 0.56 0.55 0.54 0.56 0.57 0.53 0.52 0.51 0.50 0.46 0.45 0.43 0.41 0.41 0.43 0.39 0.32 0.37 0.47 0.53 0.55 0.54 0.55 0.62 0.68
0.45 0.45 0.47 0.48 0.49 0.51 0.52 0.53 0.51 0.46 0.48 0.52 0.49 0.42 0.44 0.48 0.49 0.50 0.52 0.54 0.56 0.56 0.58 0.57 0.56 0.56 0.54 0.53 0.53 0.50 0.45 0.40 0.38 0.39 0.34 0.36 0.37 0.41 0.46 0.47 0.52 0.59 0.65
Wind_Speed
7 7 6 5 5 5 5 5 5 5 6 6 6 7 7 8 8 9 9 10 9 9 9 9 9 9 9 9 9 8 8 8 8 8 8 9 9 8 8 8 9 9 10
8 7 6 5 4 4 4 4 4 5 5 6 6 7 7 8 8 9 9 10 10 10 10 10 10 10 10 10 10 9 9 9 9 9 10 10 10 10 9 9 10 10 11
7 7 6 5 4 3 3 3 4 4 5 5 6 7 8 8 9 9 9 10 11 11 11 11 11 11 11 11 11 11 11 11 11 11 12 12 12 12 11 11 11 11 11
8 7 5 4 3 3 2 2 3 4 5 6 7 7 8 8 9 9 10 11 11 12 12 12 12 12 13 13 13 13 13 13 13 14 14 14 14 14 13 14 14 13 13
7 6 5 4 3 2 2 2 3 4 5 6 7 8 8 9 10 10 11 12 12 12 13 13 13 14 14 14 14 15 15 15 15 16 16 16 16 16 16 16 16 16 16
6 5 4 3 2 1 1 2 3 4 6 6 7 8 9 10 10 11 12 12 13 14 14 14 15 15 15 15 16 16 17 17 17 17 18 18 18 19 19 19 18 19 19
5 4 3 3 2 1 1 2 4 5 6 7 8 9 10 10 11 12 13 14 15 16 16 16 16 17 17 17 18 18 18 19 19 20 20 20 21 21 21 21 21 21 21
5 4 4 3 3 2 2 3 4 5 7 8 9 10 11 11 12 13 14 15 17 17 17 17 17 18 18 19 19 19 20 20 21 22 22 23 24 24 24 24 24 24 23
5 5 5 4 4 3 3 4 5 6 7 8 9 11 11 12 13 14 16 17 18 17 17 18 18 19 19 20 20 21 22 23 23 24 25 25 25 26 26 26 26 26 26
6 6 6 6 5 4 4 5 6 7 8 9 10 11 12 13 14 15 17 19 18 18 19 19 19 20 21 22 22 23 24 24 25 25 26 27 27 27 28 28 27 28 28
7 7 7 7 6 5 5 6 7 8 9 10 11 12 13 14 15 16 19 19 19 20 20 21 22 22 23 24 25 26 26 26 26 27 27 28 29 30 30 29 28 28 28
9 9 8 8 7 6 7 7 8 9 10 10 12 13 14 15 16 18 20 20 21 21 21 23 24 25 26 26 27 27 27 27 28 29 30 30 29 28 28 28 29 29 29
10 9 9 9 8 7 8 8 9 10 11 11 13 14 15 17 18 19 20 21 22 23 23 24 26 27 28 28 28 28 28 28 29 29 30 30 29 29 29 29 29 30 30
12 11 10 10 9 9 8 9 10 11 11 13 14 16 16 18 19 20 22 23 24 24 25 27 28 29 29 30 29 29 29 29 29 30 30 29 29 29 29 29 29 29 28
12 12 11 10 10 9 9 9 10 11 13 14 14 15 17 18 20 22 23 24 24 26 27 28 29 30 31 31 30 30 29 29 29 28 28 28 27 27 26 26 25 25 24
14 13 12 11 11 10 10 11 12 13 13 14 15 16 18 19 21 22 24 25 27 28 30 30 31 31 32 31 30 29 28 28 27 27 26 26 26 25 25 23 21 20 20
15 14 13 12 12 11 12 12 13 14 15 15 17 18 19 21 22 24 25 27 29 31 31 32 32 33 31 30 29 28 26 26 25 24 24 24 25 25 23 19 17 16 16
16 16 14 13 13 13 13 14 14 15 16 17 18 19 21 22 23 25 27 29 31 33 33 33 33 32 30 29 27 26 25 23 22 22 20 20 21 19 15 14 13 13 14
17 16 15 15 14 14 15 15 16 16 17 18 20 21 22 23 25 27 29 31 33 34 34 33 32 31 29 27 25 23 21 20 19 17 17 16 15 11 8 9 11 12 12
17 17 16 16 16 16 16 17 17 18 19 20 21 22 23 25 27 29 31 32 33 34 34 32 31 29 27 24 23 21 19 17 15 14 14 13 12 10 8 8 10 11 10
17 17 17 17 17 17 17 18 19 19 20 21 23 24 25 26 28 30 32 32 33 33 31 30 29 27 24 21 19 18 17 14 13 12 12 11 11 9 9 9 10 9 8
18 18 18 18 18 19 19 19 19 20 21 23 24 25 26 28 30 31 31 31 31 30 29 28 26 23 20 19 18 16 16 14 13 12 11 11 11 10 10 10 9 9 8
18 19 19 19 19 19 19 20 21 22 23 24 24 25 27 29 30 31 31 30 28 27 27 26 24 20 18 18 17 16 15 14 15 12 12 12 11 11 11 10 10 10 10
18 18 19 19 19 20 20 21 22 22 23 24 25 27 29 30 30 30 29 26 25 25 25 24 21 19 17 18 17 16 15 15 14 14 13 14 13 13 12 11 12 12 11
17 17 18 19 19 19 21 21 22 23 24 26 27 29 30 30 30 29 26 24 25 24 24 23 22 20 19 18 17 17 16 15 15 15 16 14 16 15 14 14 14 12 10
17 17 17 18 19 20 20 22 23 24 26 27 29 29 29 30 28 25 24 25 26 25 25 24 22 21 20 19 18 17 17 16 16 16 16 18 17 16 16 15 13 12 11
Wind_Direction
149 147 139 127 115 101 87 77 68 59 52 46 40 34 27 23 16 10 8 6 4 359 356 353 351 348 346 343 340 336 332 328 322 314 309 308 307 305 306 300 294 292 289
147 147 141 132 120 105 90 75 62 53 44 36 27 19 13 8 4 359 358 357 356 351 343 341 339 336 334 332 330 326 322 320 316 311 307 303 300 298 300 301 296 294 291
149 148 143 135 125 109 91 72 55 42 29 19 11 5 1 357 355 354 353 351 348 345 343 337 332 328 324 322 319 316 314 312 308 306 303 299 296 291 290 294 293 291 290
148 150 146 139 129 114 89 62 39 21 10 4 1 360 359 357 354 351 348 346 344 340 337 333 328 325 321 316 314 311 308 306 303 301 299 295 292 289 284 287 288 286 285
149 149 150 148 136 118 83 37 15 6 2 356 353 352 350 348 346 344 343 341 339 336 333 330 326 323 321 317 312 308 306 304 301 299 297 294 290 288 282 284 284 283 282
153 153 151 159 157 132 52 16 2 352 350 350 350 348 347 345 343 341 339 337 335 332 328 326 323 320 317 315 311 309 305 301 299 297 295 292 290 288 281 283 282 281 280
168 173 178 179 187 199 322 341 342 342 342 343 342 342 341 339 338 336 335 333 330 327 324 322 320 317 315 312 309 307 305 303 298 295 293 291 289 288 282 280 281 281 280
201 206 204 210 220 245 288 321 332 335 336 336 337 336 335 334 335 335 334 332 329 326 324 322 320 318 316 313 310 307 305 303 300 297 294 291 288 285 284 280 279 280 279
209 217 219 229 234 254 281 307 322 328 330 331 332 333 333 332 331 331 331 330 330 329 326 324 322 320 317 314 311 308 304 301 298 296 293 291 288 285 283 282 278 279 278
226 233 234 235 243 257 280 300 314 323 326 327 329 330 330 330 328 329 330 329 328 327 326 324 322 320 318 316 314 310 307 302 299 297 294 290 288 285 282 280 277 278 278
235 244 237 238 245 256 281 294 308 317 321 322 324 326 328 328 328 328 328 328 326 324 323 323 321 318 316 314 312 310 308 303 300 298 296 292 291 284 282 279 277 277 277
240 239 237 239 249 262 279 291 302 313 319 320 323 325 325 325 326 326 326 326 325 322 321 321 320 318 316 313 311 309 306 304 302 298 296 294 291 287 282 280 278 276 276
235 238 237 242 251 264 279 291 300 309 314 316 320 323 323 324 324 325 326 325 324 323 320 320 319 316 315 312 311 308 306 304 302 300 298 295 291 287 284 281 278 277 276
236 237 240 243 254 267 278 288 300 306 311 312 315 320 320 322 324 325 326 325 325 323 321 319 317 316 314 313 310 308 306 304 302 301 298 295 292 288 284 282 280 277 276
235 237 241 245 256 264 276 289 299 305 310 315 317 319 322 324 324 325 325 325 324 322 320 318 317 316 314 312 310 308 307 306 304 303 300 297 292 289 286 285 283 279 276
236 237 239 248 254 262 275 287 295 302 306 310 313 317 320 322 323 324 324 324 323 322 320 318 317 315 314 312 310 309 308 307 306 304 303 300 295 290 285 284 283 280 278
236 237 242 247 254 264 274 285 293 298 302 306 310 314 317 319 321 323 323 323 322 321 319 318 316 315 314 312 311 311 309 308 307 306 306 304 301 293 283 279 281 283 282
235 237 242 249 257 266 275 285 291 297 301 304 307 310 313 316 319 321 322 322 321 321 319 317 316 315 314 313 313 312 311 311 310 310 310 312 313 304 283 273 279 286 287
236 238 243 250 258 267 276 283 290 295 299 302 305 308 310 314 316 319 320 321 321 320 319 317 315 315 314 313 313 314 314 315 315 316 317 320 326 324 302 281 286 292 290
236 240 247 253 260 267 276 283 288 293 297 300 304 306 308 312 314 317 319 320 321 321 321 319 317 315 315 314 313 314 315 318 321 323 323 323 327 326 316 299 297 298 291
239 242 248 256 262 269 275 281 287 290 295 299 302 304 306 309 312 315 317 319 321 322 323 322 320 317 316 317 315 316 319 319 323 325 330 331 329 327 324 314 312 307 293
242 247 252 258 264 269 275 281 286 290 295 299 302 304 306 308 311 313 315 318 321 324 326 325 325 321 316 319 317 316 316 312 317 320 324 329 328 322 323 320 319 313 301
247 252 256 260 264 270 275 281 286 291 295 299 302 304 306 308 310 311 313 316 319 324 326 327 327 323 317 318 319 315 314 310 310 304 311 321 326 323 314 313 313 310 310
252 256 259 262 264 270 276 282 287 291 295 298 301 304 306 308 309 310 311 313 317 323 326 326 325 321 315 314 316 313 311 306 306 302 297 305 307 313 312 307 308 304 300
254 258 261 264 267 273 279 283 287 291 295 299 302 304 306 307 308 309 308 309 313 318 322 323 319 315 312 309 308 308 308 306 301 297 296 297 300 300 302 301 302 302 296
258 260 264 267 272 275 279 284 288 292 296 299 302 303 305 306 306 306 306 307 308 310 314 318 317 310 306 305 303 300 299 302 302 298 296 296 297 296 296 295 294 293 292